WX4FUN-13 Weather Reports


time (UTC)temp
F
wind
direction
speed
knots
gust
knots
rain 1hr
in
rain 24hr
in
rain mn
in
humidity
%
barometer
mb
20260510213856 68 252 1.7 5.2 0.00 0.05 0.00 60 1012.8
20260510212854 69 222 1.7 3.5 0.00 0.06 0.00 61 1012.7
20260510211855 69 217 0.9 2.6 0.00 0.06 0.00 61 1012.4
20260510210852 69 225 1.7 5.2 0.00 0.07 0.00 60 1012.4
20260510205852 69 225 0.9 3.5 0.00 0.10 0.00 61 1012.3
20260510204852 70 295 1.7 5.2 0.00 0.11 0.00 62 1012.3
20260510203854 71 243 1.7 4.3 0.00 0.12 0.00 65 1012.1
20260510202850 71 234 0.9 2.6 0.00 0.14 0.00 64 1011.8
20260510201848 71 233 1.7 5.2 0.00 0.16 0.00 62 1011.7
20260510200847 71 218 1.7 3.5 0.00 0.18 0.00 62 1011.6
20260510195847 72 271 1.7 3.5 0.00 0.22 0.00 63 1011.7
20260510194849 72 219 1.7 4.3 0.00 0.24 0.00 62 1011.8
20260510193848 72 238 1.7 5.2 0.00 0.25 0.00 61 1011.8
20260510192846 71 211 1.7 6.1 0.00 0.26 0.00 62 1011.9
20260510191846 71 230 1.7 5.2 0.00 0.27 0.00 64 1012.0
20260510190854 70 282 1.7 7.0 0.00 0.27 0.00 65 1012.0
20260510185845 70 254 1.7 5.2 0.00 0.27 0.00 64 1012.1
20260510184847 71 263 1.7 3.5 0.00 0.28 0.00 63 1012.1
20260510183849 72 222 1.7 6.1 0.00 0.28 0.00 62 1012.2
20260510182844 71 204 1.7 4.3 0.00 0.28 0.00 63 1012.2
20260510181846 71 239 1.7 4.3 0.00 0.28 0.00 65 1012.1
20260510180849 70 273 1.7 5.2 0.00 0.28 0.00 65 1012.3
20260510175846 70 245 1.7 5.2 0.00 0.28 0.00 65 1012.3
20260510174846 70 248 1.7 4.3 0.00 0.28 0.00 66 1012.4
20260510173845 71 336 1.7 6.1 0.00 0.28 0.00 64 1012.4
20260510172841 70 247 1.7 4.3 0.00 0.28 0.00 67 1012.5
20260510171842 69 198 1.7 5.2 0.00 0.28 0.00 68 1012.8
20260510170842 69 233 1.7 5.2 0.00 0.28 0.00 68 1012.8
20260510165841 68 230 2.6 5.2 0.00 0.28 0.00 69 1012.9
20260510164835 68 229 1.7 5.2 0.00 0.28 0.00 70 1013.0
20260510163906 67 0 2.6 5.2 0.00 0.28 0.00 72 1013.2
20260510162834 66 210 1.7 5.2 0.00 0.28 0.00 73 1013.3
20260510161833 66 212 1.7 6.1 0.00 0.29 0.00 72 1013.4
20260510160829 66 226 0.9 4.3 0.00 0.29 0.00 71 1013.4
20260510155830 66 243 1.7 4.3 0.00 0.29 0.00 71 1013.4
20260510154830 65 217 1.7 5.2 0.00 0.29 0.00 72 1013.5
20260510153831 65 239 1.7 4.3 0.00 0.29 0.00 73 1013.7
20260510152831 64 293 0.9 2.6 0.00 0.29 0.00 77 1013.8
20260510151831 63 223 0.9 2.6 0.00 0.29 0.00 79 1013.9
20260510150818 63 214 1.7 3.5 0.00 0.29 0.00 79 1013.8
20260510145818 62 265 1.7 2.6 0.00 0.29 0.00 79 1013.8
20260510144806 61 240 0.9 1.7 0.00 0.30 0.00 82 1013.7
20260510143804 60 224 0.9 1.7 0.00 0.30 0.00 82 1013.8
20260510142806 60 300 1.7 3.5 0.00 0.30 0.00 83 1013.9
20260510141806 60 221 1.7 3.5 0.00 0.30 0.00 84 1013.9
20260510140805 59 263 0.9 1.7 0.00 0.30 0.00 85 1013.9
20260510135805 58 327 0.9 1.7 0.00 0.30 0.00 87 1013.9
20260510134751 57 222 0.9 1.7 0.00 0.30 0.00 90 1013.8
20260510133751 56 0 0.0 2.6 0.00 0.31 0.00 92 1013.8
20260510132735 55 214 0.0 1.7 0.00 0.31 0.00 92 1013.8
20260510131734 55 0 0.0 0.9 0.00 0.31 0.00 93 1013.9
20260510130735 55 235 0.0 0.9 0.00 0.31 0.00 93 1013.8
20260510125735 55 0 0.0 0.9 0.00 0.31 0.00 93 1013.6
20260510124722 55 232 0.0 1.7 0.00 0.31 0.00 93 1013.5
20260510123706 55 226 0.0 0.9 0.00 0.31 0.00 94 1013.5
20260510122706 54 238 0.0 1.7 0.00 0.31 0.00 95 1013.5
20260510121706 54 217 0.0 1.7 0.00 0.31 0.00 95 1013.5
20260510120706 54 0 0.0 1.7 0.00 0.31 0.00 97 1013.5
20260510115651 54 272 0.0 1.7 0.00 0.32 0.00 97 1013.5
20260510114652 54 229 0.0 0.9 0.00 0.32 0.00 98 1013.4
20260510113653 53 0 0.0 0.9 0.00 0.33 0.00 98 1013.4
20260510112654 53 0 0.0 0.9 0.00 0.33 0.00 98 1013.3
20260510111653 53 0 0.0 0.9 0.00 0.34 0.00 98 1013.3
20260510110654 53 0 0.0 0.0 0.00 0.35 0.00 98 1013.1
20260510105653 53 0 0.0 0.0 0.00 0.35 0.00 98 1013.1
20260510104636 53 0 0.0 0.9 0.00 0.36 0.00 98 1012.8
20260510103637 53 0 0.0 0.9 0.00 0.37 0.00 99 1013.0
20260510102639 53 301 0.0 1.7 0.00 0.37 0.00 99 1012.7
20260510101637 53 265 0.9 1.7 0.00 0.39 0.00 99 1012.5
20260510100624 52 266 0.9 1.7 0.00 0.40 0.00 99 1012.5
20260510095623 52 251 0.9 1.7 0.00 0.41 0.00 99 1012.0
20260510094608 52 222 0.9 1.7 0.00 0.42 0.00 99 1012.3
20260510093608 52 227 0.9 1.7 0.00 0.42 0.00 99 1012.3
20260510092609 52 247 0.9 1.7 0.00 0.43 0.00 99 1012.3
20260510091609 52 278 0.0 1.7 0.00 0.46 0.00 99 1012.4
20260510090608 52 0 0.0 1.7 0.00 0.47 0.00 99 1012.4
20260510085553 52 220 0.0 0.9 0.00 0.48 0.00 99 1012.4
20260510084555 52 0 0.0 0.0 0.00 0.49 0.00 99 1012.8
20260510083556 52 0 0.0 0.9 0.00 0.49 0.00 99 1012.6
20260510082555 52 282 0.0 0.9 0.00 0.49 0.00 99 1012.6
20260510081555 52 0 0.0 0.0 0.00 0.49 0.00 99 1012.5
20260510080555 52 0 0.0 0.9 0.00 0.49 0.00 99 1012.6
20260510075541 52 0 0.0 0.9 0.00 0.49 0.00 99 1012.5
20260510074540 52 0 0.0 1.7 0.00 0.49 0.00 99 1012.4
20260510073541 52 0 0.0 0.9 0.00 0.49 0.00 99 1012.3
20260510072541 52 240 0.0 0.9 0.00 0.49 0.00 99 1012.2
20260510071541 52 0 0.0 0.9 0.00 0.49 0.00 99 1012.2
20260510070540 52 0 0.0 0.9 0.00 0.49 0.00 99 1012.1
20260510065527 52 0 0.0 1.7 0.00 0.49 0.00 99 1012.1
20260510064527 52 0 0.0 0.0 0.00 0.49 0.00 99 1012.2
20260510063526 52 0 0.0 0.9 0.00 0.49 0.00 99 1012.2
20260510062529 52 0 0.0 0.9 0.00 0.49 0.00 99 1012.2
20260510061528 52 0 0.0 0.9 0.00 0.49 0.00 99 1011.9
20260510060513 52 228 0.0 0.9 0.00 0.49 0.00 99 1011.8
20260510055459 52 0 0.0 0.0 0.00 0.49 0.00 99 1011.8
20260510054459 52 0 0.0 0.9 0.00 0.49 0.00 98 1011.8
20260510053458 53 232 0.0 0.9 0.00 0.49 0.00 98 1011.8
20260510052458 53 0 0.0 1.7 0.00 0.49 0.00 98 1012.1
20260510051501 53 0 0.0 0.9 0.00 0.49 0.00 98 1012.1
20260510050442 53 0 0.0 0.9 0.00 0.49 0.00 98 1012.3
20260510045442 53 0 0.0 0.0 0.00 0.49 0.00 98 1012.4
20260510044442 53 0 0.0 0.0 0.00 0.49 0.00 98 1012.1
20260510043442 53 0 0.0 0.0 0.00 0.49 0.00 98 1012.1
20260510042443 53 0 0.0 0.0 0.00 0.49 0.00 98 1012.3
20260510041442 53 0 0.0 0.9 0.00 0.49 0.00 98 1012.4
20260510040430 53 0 0.0 0.0 0.00 0.49 0.00 98 1012.4
20260510035432 53 0 0.0 0.0 0.00 0.49 0.49 98 1012.3
20260510034432 53 0 0.0 0.0 0.00 0.49 0.49 98 1012.2
20260510033432 53 0 0.0 0.0 0.00 0.49 0.49 98 1012.3
20260510032432 53 0 0.0 0.0 0.00 0.49 0.49 98 1012.2
20260510031430 53 0 0.0 0.0 0.00 0.49 0.49 98 1012.2
20260510030415 53 0 0.0 0.0 0.00 0.49 0.49 98 1012.2
20260510025416 53 0 0.0 0.0 0.00 0.49 0.49 98 1012.0
20260510024416 53 0 0.0 0.0 0.00 0.49 0.49 98 1012.0
20260510023418 53 0 0.0 0.0 0.00 0.49 0.49 98 1012.0
20260510022416 53 0 0.0 0.0 0.00 0.49 0.49 98 1012.0
20260510021403 53 0 0.0 0.0 0.00 0.49 0.49 98 1012.2
20260510020402 53 0 0.0 0.0 0.00 0.49 0.49 98 1012.4
20260510015401 53 0 0.0 0.0 0.00 0.49 0.49 98 1012.4
20260510014401 53 0 0.0 0.0 0.00 0.49 0.49 98 1012.5
20260510013402 53 0 0.0 0.0 0.00 0.49 0.49 98 1012.6
20260510012403 53 0 0.0 0.0 0.00 0.49 0.49 98 1012.4
20260510011346 53 0 0.0 0.0 0.00 0.49 0.49 98 1012.1
20260510010346 53 0 0.0 0.0 0.00 0.49 0.49 98 1011.9
20260510005346 53 0 0.0 0.0 0.00 0.49 0.49 98 1012.0
20260510004347 53 0 0.0 0.0 0.00 0.49 0.49 98 1011.9
20260510003347 53 0 0.0 0.0 0.00 0.49 0.49 98 1011.9
20260510002335 53 0 0.0 0.9 0.00 0.49 0.49 98 1011.7
20260510001333 53 0 0.0 0.0 0.00 0.49 0.49 98 1011.5
20260510000333 53 0 0.0 0.9 0.00 0.49 0.49 98 1011.7
20260509235333 53 0 0.0 0.9 0.00 0.49 0.49 98 1011.8
20260509234335 53 247 0.9 1.7 0.00 0.49 0.49 98 1011.7
20260509233320 53 237 0.9 1.7 0.00 0.49 0.49 98 1011.7
20260509232319 53 256 0.9 1.7 0.01 0.49 0.49 98 1011.8
20260509231321 53 214 0.9 1.7 0.02 0.49 0.49 98 1011.8
20260509230320 53 231 0.9 1.7 0.02 0.49 0.49 97 1011.7
20260509225320 52 0 0.9 2.6 0.04 0.49 0.49 97 1011.7
20260509224305 52 231 0.9 1.7 0.05 0.49 0.49 97 1011.8
20260509223306 52 228 0.9 1.7 0.05 0.49 0.49 97 1011.8
20260509222307 52 213 0.9 1.7 0.05 0.48 0.48 97 1012.0
20260509221306 52 232 0.9 1.7 0.06 0.48 0.48 97 1012.0
20260509220306 51 223 0.0 1.7 0.07 0.47 0.47 97 1011.9
20260509215307 51 0 0.0 0.0 0.06 0.45 0.45 96 1011.9